This is the latest recevied weather packets stored in our database for station/object K4ROM-1. If no packets are shown the sender has not sent any weather packets the latest 10 day(s).
| Time | Temp. | Humidity | Pressure | Rain* | Wind** | Luminosity | Snow |
|---|---|---|---|---|---|---|---|
| 1777987803 | 18.33° C | 73% | 1018.2 hPa | 0 mm | 1.34 m/s, 239° | - | - |
| 1777987203 | 17.78° C | 74% | 1018.3 hPa | 0 mm | 0.89 m/s, 268° | - | - |
| 1777986603 | 17.78° C | 74% | 1018.2 hPa | 0 mm | 1.79 m/s, 243° | - | - |
| 1777986003 | 17.22° C | 75% | 1018.2 hPa | 0 mm | 1.34 m/s, 237° | - | - |
| 1777985403 | 17.22° C | 75% | 1018.2 hPa | 0 mm | 0.89 m/s, 238° | - | - |
| 1777984803 | 16.11° C | 78% | 1018.4 hPa | 0 mm | 0.45 m/s, 243° | - | - |
| 1777984203 | 16.11° C | 79% | 1017.9 hPa | 0 mm | 1.79 m/s, 246° | - | - |
| 1777983603 | 13.89° C | 85% | 1018.1 hPa | 0 mm | 0.45 m/s, 218° | - | - |
| 1777983003 | 12.78° C | 90% | 1018.1 hPa | 0 mm | 0 m/s | - | - |
| 1777982403 | 11.67° C | 93% | 1018 hPa | 0 mm | 0 m/s | - | - |
| 1777981803 | 11.11° C | 93% | 1017.9 hPa | 0 mm | 0 m/s | - | - |
| 1777981203 | 10.56° C | 93% | 1017.7 hPa | 0 mm | 0 m/s | - | - |
| 1777980603 | 10.56° C | 93% | 1017.8 hPa | 0 mm | 0 m/s | - | - |
| 1777980003 | 10.56° C | 94% | 1017.7 hPa | 0 mm | 0 m/s | - | - |
| 1777979402 | 10° C | 93% | 1017.8 hPa | 0 mm | 0 m/s | - | - |
| 1777978804 | 10° C | 92% | 1017.7 hPa | 0 mm | 0 m/s | - | - |
| 1777978203 | 10° C | 94% | 1017.7 hPa | 0 mm | 0 m/s | - | - |
| 1777977603 | 10° C | 93% | 1017.6 hPa | 0 mm | 0 m/s | - | - |
| 1777977003 | 10° C | 94% | 1017.3 hPa | 0 mm | 0 m/s | - | - |
| 1777976403 | 10° C | 94% | 1017.2 hPa | 0 mm | 0 m/s | - | - |
| 1777975803 | 10° C | 93% | 1017.1 hPa | 0 mm | 0 m/s | - | - |
| 1777975203 | 10° C | 93% | 1017 hPa | 0 mm | 0 m/s | - | - |
| 1777974603 | 10° C | 92% | 1016.9 hPa | 0 mm | 0 m/s | - | - |
| 1777974003 | 10.56° C | 90% | 1017 hPa | 0 mm | 0 m/s | - | - |
| 1777973403 | 10.56° C | 89% | 1016.9 hPa | 0 mm | 0 m/s | - | - |
* Rain latest hour (hover to see other rain measurements)
** Current wind speed in m/s (hover to see current wind gust speed)